Torna al catalogo

THOR ABLESTAR DEB

AttivoLEO
NORAD 210·DEBRIS·🇺🇸 United States

Lanciato Jun 29, 1961 da Cape Canaveral Space Force Station

Loading…

Prossimi Passaggi (prossime 24 ore)

TLE

AggiornatoSource: Space-Track

Epoca: Sep 10, 2026, 10:48 UTC

1   210U 61015BE  26253.45007007  .00000312  00000-0  31805-3 0  9993
2   210  66.4567 155.0636 0053381 260.9528  98.5503 13.89157297277241

Traccia THOR ABLESTAR DEB in tempo reale con AllMySat

Download on the App Store